Time,TemperatureF,DewpointF,PressureIn,WindDirection,WindDirectionDegrees,WindSpeedMPH,WindSpeedGustMPH,Humidity,HourlyPrecipIn,Conditions,Clouds,dailyrainin,SoftwareType,DateUTC
2013-05-07 00:00:00,60.8,38.7,29.91,West,276,0.0,0.0,44,0.00,,,0.00,Wunderground v.1.15,2013-05-07 06:00:00,
2013-05-07 00:05:00,60.4,38.9,29.91,West,276,0.0,0.0,45,0.00,,,0.00,Wunderground v.1.15,2013-05-07 06:05:00,
2013-05-07 00:10:00,60.1,36.9,29.91,West,276,0.0,1.0,42,0.00,,,0.00,Wunderground v.1.15,2013-05-07 06:10:00,
2013-05-07 00:15:00,60.0,38.0,29.91,West,276,0.0,1.0,44,0.00,,,0.00,Wunderground v.1.15,2013-05-07 06:15:00,
2013-05-07 00:20:00,59.9,34.9,29.91,West,276,0.0,0.0,39,0.00,,,0.00,Wunderground v.1.15,2013-05-07 06:20:00,
2013-05-07 00:24:00,59.6,35.2,29.91,West,276,0.0,0.0,40,0.00,,,0.00,Wunderground v.1.15,2013-05-07 06:24:00,
2013-05-07 00:29:00,59.5,34.5,29.92,West,276,0.0,1.0,39,0.00,,,0.00,Wunderground v.1.15,2013-05-07 06:29:00,
2013-05-07 00:35:00,59.5,32.5,29.92,West,276,0.0,1.0,36,0.00,,,0.00,Wunderground v.1.15,2013-05-07 06:35:00,
2013-05-07 00:40:00,59.6,31.9,29.92,West,276,0.0,0.0,35,0.00,,,0.00,Wunderground v.1.15,2013-05-07 06:40:00,
2013-05-07 00:49:00,59.6,32.6,29.92,West,276,0.0,0.0,36,0.00,,,0.00,Wunderground v.1.15,2013-05-07 06:49:00,
2013-05-07 00:55:00,59.4,32.4,29.92,West,276,0.0,0.0,36,0.00,,,0.00,Wunderground v.1.15,2013-05-07 06:55:00,
2013-05-07 01:00:00,59.0,32.1,29.92,West,276,0.0,0.0,36,0.00,,,0.00,Wunderground v.1.15,2013-05-07 07:00:00,
2013-05-07 01:05:00,59.0,33.4,29.92,West,276,0.0,0.0,38,0.00,,,0.00,Wunderground v.1.15,2013-05-07 07:05:00,
2013-05-07 01:10:00,58.9,33.3,29.92,West,276,0.0,0.0,38,0.00,,,0.00,Wunderground v.1.15,2013-05-07 07:10:00,
2013-05-07 01:15:00,58.6,33.0,29.92,West,276,0.0,0.0,38,0.00,,,0.00,Wunderground v.1.15,2013-05-07 07:15:00,
2013-05-07 01:20:00,58.4,32.9,29.92,West,276,0.0,0.0,38,0.00,,,0.00,Wunderground v.1.15,2013-05-07 07:20:00,
2013-05-07 01:25:00,58.4,32.9,29.92,West,276,0.0,0.0,38,0.00,,,0.00,Wunderground v.1.15,2013-05-07 07:25:00,
2013-05-07 01:30:00,58.4,32.2,29.91,West,276,0.0,0.0,37,0.00,,,0.00,Wunderground v.1.15,2013-05-07 07:30:00,
2013-05-07 01:35:00,58.3,32.1,29.91,West,276,0.0,0.0,37,0.00,,,0.00,Wunderground v.1.15,2013-05-07 07:35:00,
2013-05-07 01:40:00,58.2,31.3,29.91,West,276,0.0,0.0,36,0.00,,,0.00,Wunderground v.1.15,2013-05-07 07:40:00,
2013-05-07 01:45:00,58.2,32.0,29.91,West,276,0.0,0.0,37,0.00,,,0.00,Wunderground v.1.15,2013-05-07 07:45:00,
2013-05-07 01:50:00,58.1,31.3,29.91,West,276,0.0,0.0,36,0.00,,,0.00,Wunderground v.1.15,2013-05-07 07:50:00,
2013-05-07 02:00:00,58.0,31.8,29.92,West,276,0.0,0.0,37,0.00,,,0.00,Wunderground v.1.15,2013-05-07 08:00:00,
2013-05-07 02:05:00,57.8,31.7,29.91,West,276,0.0,0.0,37,0.00,,,0.00,Wunderground v.1.15,2013-05-07 08:05:00,
2013-05-07 02:10:00,57.8,31.0,29.91,West,276,0.0,0.0,36,0.00,,,0.00,Wunderground v.1.15,2013-05-07 08:10:00,
2013-05-07 02:15:00,57.8,31.7,29.91,West,276,0.0,0.0,37,0.00,,,0.00,Wunderground v.1.15,2013-05-07 08:15:00,
2013-05-07 02:20:00,57.7,31.6,29.91,West,276,0.0,0.0,37,0.00,,,0.00,Wunderground v.1.15,2013-05-07 08:20:00,
2013-05-07 02:25:00,57.5,31.4,29.91,West,276,0.0,0.0,37,0.00,,,0.00,Wunderground v.1.15,2013-05-07 08:25:00,
2013-05-07 02:30:00,57.2,31.1,29.91,West,276,0.0,0.0,37,0.00,,,0.00,Wunderground v.1.15,2013-05-07 08:30:00,
2013-05-07 02:35:00,56.7,31.4,29.91,West,276,0.0,0.0,38,0.00,,,0.00,Wunderground v.1.15,2013-05-07 08:35:00,
2013-05-07 02:40:00,56.2,30.9,29.91,West,276,0.0,0.0,38,0.00,,,0.00,Wunderground v.1.15,2013-05-07 08:40:00,
2013-05-07 02:45:00,55.7,31.1,29.91,West,276,0.0,0.0,39,0.00,,,0.00,Wunderground v.1.15,2013-05-07 08:45:00,
2013-05-07 02:50:00,55.1,30.6,29.91,West,276,0.0,0.0,39,0.00,,,0.00,Wunderground v.1.15,2013-05-07 08:50:00,
2013-05-07 02:54:00,54.6,30.7,29.91,West,276,0.0,0.0,40,0.00,,,0.00,Wunderground v.1.15,2013-05-07 08:54:00,
2013-05-07 03:00:00,54.1,30.9,29.91,West,276,0.0,0.0,41,0.00,,,0.00,Wunderground v.1.15,2013-05-07 09:00:00,
2013-05-07 03:05:00,53.7,30.5,29.91,West,276,0.0,0.0,41,0.00,,,0.00,Wunderground v.1.15,2013-05-07 09:05:00,
2013-05-07 03:10:00,53.2,30.1,29.91,West,276,0.0,0.0,41,0.00,,,0.00,Wunderground v.1.15,2013-05-07 09:10:00,
2013-05-07 03:15:00,52.8,30.3,29.91,West,276,0.0,0.0,42,0.00,,,0.00,Wunderground v.1.15,2013-05-07 09:15:00,
2013-05-07 03:20:00,52.5,30.0,29.91,West,276,0.0,0.0,42,0.00,,,0.00,Wunderground v.1.15,2013-05-07 09:20:00,
2013-05-07 03:25:00,52.3,30.4,29.91,West,276,0.0,0.0,43,0.00,,,0.00,Wunderground v.1.15,2013-05-07 09:25:00,
2013-05-07 03:30:00,52.1,30.8,29.91,West,276,0.0,0.0,44,0.00,,,0.00,Wunderground v.1.15,2013-05-07 09:30:00,
2013-05-07 03:35:00,51.8,30.6,29.91,West,276,0.0,0.0,44,0.00,,,0.00,Wunderground v.1.15,2013-05-07 09:35:00,
2013-05-07 03:40:00,51.4,30.2,29.91,West,276,0.0,0.0,44,0.00,,,0.00,Wunderground v.1.15,2013-05-07 09:40:00,
2013-05-07 03:44:00,51.0,30.4,29.91,West,276,0.0,0.0,45,0.00,,,0.00,Wunderground v.1.15,2013-05-07 09:44:00,
2013-05-07 03:49:00,50.7,30.1,29.91,West,276,0.0,0.0,45,0.00,,,0.00,Wunderground v.1.15,2013-05-07 09:49:00,
2013-05-07 03:54:00,50.4,29.8,29.91,West,276,0.0,0.0,45,0.00,,,0.00,Wunderground v.1.15,2013-05-07 09:54:00,
2013-05-07 04:00:00,50.2,30.2,29.91,West,276,0.0,0.0,46,0.00,,,0.00,Wunderground v.1.15,2013-05-07 10:00:00,
2013-05-07 04:05:00,50.0,30.5,29.91,West,276,0.0,0.0,47,0.00,,,0.00,Wunderground v.1.15,2013-05-07 10:05:00,
2013-05-07 04:10:00,49.8,30.4,29.91,West,276,0.0,0.0,47,0.00,,,0.00,Wunderground v.1.15,2013-05-07 10:10:00,
2013-05-07 04:15:00,49.6,30.2,29.92,West,276,0.0,0.0,47,0.00,,,0.00,Wunderground v.1.15,2013-05-07 10:15:00,
2013-05-07 04:20:00,49.3,30.4,29.92,West,276,0.0,0.0,48,0.00,,,0.00,Wunderground v.1.15,2013-05-07 10:20:00,
2013-05-07 04:25:00,49.2,30.3,29.92,West,276,0.0,0.0,48,0.00,,,0.00,Wunderground v.1.15,2013-05-07 10:25:00,
2013-05-07 04:30:00,49.0,30.1,29.92,West,276,0.0,0.0,48,0.00,,,0.00,Wunderground v.1.15,2013-05-07 10:30:00,
2013-05-07 04:35:00,48.8,30.5,29.92,West,276,0.0,1.0,49,0.00,,,0.00,Wunderground v.1.15,2013-05-07 10:35:00,
2013-05-07 04:39:00,48.8,30.5,29.91,West,276,0.0,0.0,49,0.00,,,0.00,Wunderground v.1.15,2013-05-07 10:39:00,
2013-05-07 04:45:00,48.7,30.4,29.92,West,276,0.0,0.0,49,0.00,,,0.00,Wunderground v.1.15,2013-05-07 10:45:00,
2013-05-07 04:54:00,48.5,30.7,29.92,West,276,0.0,0.0,50,0.00,,,0.00,Wunderground v.1.15,2013-05-07 10:54:00,
2013-05-07 04:59:00,48.4,30.6,29.92,West,276,0.0,0.0,50,0.00,,,0.00,Wunderground v.1.15,2013-05-07 10:59:00,
2013-05-07 05:05:00,48.2,30.4,29.92,West,276,0.0,0.0,50,0.00,,,0.00,Wunderground v.1.15,2013-05-07 11:05:00,
2013-05-07 05:10:00,48.0,30.7,29.92,West,276,0.0,0.0,51,0.00,,,0.00,Wunderground v.1.15,2013-05-07 11:10:00,
2013-05-07 05:15:00,47.7,30.4,29.92,West,276,0.0,0.0,51,0.00,,,0.00,Wunderground v.1.15,2013-05-07 11:15:00,
2013-05-07 05:20:00,47.5,30.7,29.92,West,276,0.0,0.0,52,0.00,,,0.00,Wunderground v.1.15,2013-05-07 11:20:00,
2013-05-07 05:30:00,47.4,31.6,29.92,West,276,0.0,0.0,54,0.00,,,0.00,Wunderground v.1.15,2013-05-07 11:30:00,
2013-05-07 05:34:00,47.2,31.4,29.92,West,276,0.0,0.0,54,0.00,,,0.00,Wunderground v.1.15,2013-05-07 11:34:00,
2013-05-07 05:39:00,46.9,31.6,29.92,West,276,0.0,0.0,55,0.00,,,0.00,Wunderground v.1.15,2013-05-07 11:39:00,
2013-05-07 05:44:00,46.7,31.4,29.92,West,276,0.0,0.0,55,0.00,,,0.00,Wunderground v.1.15,2013-05-07 11:44:00,
2013-05-07 05:50:00,46.4,31.1,29.92,West,276,0.0,0.0,55,0.00,,,0.00,Wunderground v.1.15,2013-05-07 11:50:00,
2013-05-07 05:55:00,46.1,31.7,29.92,West,276,0.0,0.0,57,0.00,,,0.00,Wunderground v.1.15,2013-05-07 11:55:00,
2013-05-07 06:00:00,45.9,31.5,29.93,West,276,0.0,0.0,57,0.00,,,0.00,Wunderground v.1.15,2013-05-07 12:00:00,
2013-05-07 06:10:00,45.4,31.5,29.93,West,276,0.0,0.0,58,0.00,,,0.00,Wunderground v.1.15,2013-05-07 12:10:00,
2013-05-07 06:15:00,45.4,31.5,29.93,West,276,0.0,0.0,58,0.00,,,0.00,Wunderground v.1.15,2013-05-07 12:15:00,
2013-05-07 06:20:00,45.2,31.7,29.93,West,276,0.0,0.0,59,0.00,,,0.00,Wunderground v.1.15,2013-05-07 12:20:00,
2013-05-07 06:25:00,45.0,31.5,29.93,West,276,0.0,0.0,59,0.00,,,0.00,Wunderground v.1.15,2013-05-07 12:25:00,
2013-05-07 06:29:00,45.0,31.9,29.94,West,276,0.0,0.0,60,0.00,,,0.00,Wunderground v.1.15,2013-05-07 12:29:00,
2013-05-07 06:34:00,44.9,31.8,29.94,West,276,0.0,0.0,60,0.00,,,0.00,Wunderground v.1.15,2013-05-07 12:34:00,
2013-05-07 06:40:00,44.9,31.8,29.94,West,276,0.0,0.0,60,0.00,,,0.00,Wunderground v.1.15,2013-05-07 12:40:00,
2013-05-07 06:45:00,44.9,31.8,29.94,West,276,0.0,0.0,60,0.00,,,0.00,Wunderground v.1.15,2013-05-07 12:45:00,
2013-05-07 06:50:00,45.0,31.9,29.94,West,276,0.0,0.0,60,0.00,,,0.00,Wunderground v.1.15,2013-05-07 12:50:00,
2013-05-07 07:00:00,45.7,30.4,29.94,West,276,0.0,0.0,55,0.00,,,0.00,Wunderground v.1.15,2013-05-07 13:00:00,
2013-05-07 07:05:00,47.0,30.3,29.95,West,276,0.0,0.0,52,0.00,,,0.00,Wunderground v.1.15,2013-05-07 13:05:00,
2013-05-07 07:10:00,47.7,30.0,29.95,West,276,0.0,0.0,50,0.00,,,0.00,Wunderground v.1.15,2013-05-07 13:10:00,
2013-05-07 07:14:00,48.3,30.0,29.95,West,276,0.0,0.0,49,0.00,,,0.00,Wunderground v.1.15,2013-05-07 13:14:00,
2013-05-07 07:19:00,49.0,30.1,29.96,West,276,0.0,0.0,48,0.00,,,0.00,Wunderground v.1.15,2013-05-07 13:19:00,
2013-05-07 07:24:00,49.8,30.4,29.96,West,276,0.0,0.0,47,0.00,,,0.00,Wunderground v.1.15,2013-05-07 13:24:00,
2013-05-07 07:29:00,50.5,30.5,29.96,West,276,0.0,0.0,46,0.00,,,0.00,Wunderground v.1.15,2013-05-07 13:29:00,
2013-05-07 07:34:00,51.3,30.7,29.96,West,276,0.0,0.0,45,0.00,,,0.00,Wunderground v.1.15,2013-05-07 13:34:00,
2013-05-07 07:40:00,52.2,30.4,29.96,West,276,0.0,0.0,43,0.00,,,0.00,Wunderground v.1.15,2013-05-07 13:40:00,
2013-05-07 07:45:00,53.0,30.5,29.96,West,276,1.0,1.0,42,0.00,,,0.00,Wunderground v.1.15,2013-05-07 13:45:00,
2013-05-07 07:50:00,53.5,30.4,29.96,West,276,1.0,1.0,41,0.00,,,0.00,Wunderground v.1.15,2013-05-07 13:50:00,
2013-05-07 07:55:00,54.0,30.8,29.96,West,276,0.0,1.0,41,0.00,,,0.00,Wunderground v.1.15,2013-05-07 13:55:00,
2013-05-07 08:00:00,54.4,30.6,29.96,West,276,0.0,2.0,40,0.00,,,0.00,Wunderground v.1.15,2013-05-07 14:00:00,
2013-05-07 08:05:00,54.9,30.4,29.96,West,276,0.0,2.0,39,0.00,,,0.00,Wunderground v.1.15,2013-05-07 14:05:00,
2013-05-07 08:10:00,55.3,30.1,29.96,West,276,0.0,0.0,38,0.00,,,0.00,Wunderground v.1.15,2013-05-07 14:10:00,
2013-05-07 08:15:00,55.6,30.4,29.96,West,276,0.0,0.0,38,0.00,,,0.00,Wunderground v.1.15,2013-05-07 14:15:00,
2013-05-07 08:20:00,56.0,31.4,29.96,West,276,0.0,1.0,39,0.00,,,0.00,Wunderground v.1.15,2013-05-07 14:20:00,
2013-05-07 08:25:00,56.5,30.5,29.96,West,277,0.0,1.0,37,0.00,,,0.00,Wunderground v.1.15,2013-05-07 14:25:00,
2013-05-07 08:30:00,57.0,31.0,29.96,West,277,0.0,1.0,37,0.00,,,0.00,Wunderground v.1.15,2013-05-07 14:30:00,
2013-05-07 08:34:00,57.4,30.6,29.96,West,277,0.0,1.0,36,0.00,,,0.00,Wunderground v.1.15,2013-05-07 14:34:00,
2013-05-07 08:39:00,57.9,31.1,29.96,West,277,0.0,0.0,36,0.00,,,0.00,Wunderground v.1.15,2013-05-07 14:39:00,
2013-05-07 08:45:00,58.3,31.4,29.96,West,277,1.0,1.0,36,0.00,,,0.00,Wunderground v.1.15,2013-05-07 14:45:00,
2013-05-07 08:50:00,58.6,30.3,29.96,West,277,1.0,1.0,34,0.00,,,0.00,Wunderground v.1.15,2013-05-07 14:50:00,
2013-05-07 08:55:00,59.0,30.6,29.96,West,277,0.0,1.0,34,0.00,,,0.00,Wunderground v.1.15,2013-05-07 14:55:00,
2013-05-07 09:00:00,59.9,30.7,29.96,West,277,0.0,0.0,33,0.00,,,0.00,Wunderground v.1.15,2013-05-07 15:00:00,
2013-05-07 09:05:00,60.6,31.3,29.96,WNW,286,1.0,1.0,33,0.00,,,0.00,Wunderground v.1.15,2013-05-07 15:05:00,
2013-05-07 09:10:00,60.9,30.8,29.96,WNW,292,1.0,1.0,32,0.00,,,0.00,Wunderground v.1.15,2013-05-07 15:10:00,
2013-05-07 09:15:00,61.6,31.4,29.96,WNW,290,1.0,2.0,32,0.00,,,0.00,Wunderground v.1.15,2013-05-07 15:15:00,
2013-05-07 09:19:00,62.5,32.2,29.96,WNW,290,1.0,1.0,32,0.00,,,0.00,Wunderground v.1.15,2013-05-07 15:19:00,
2013-05-07 09:30:00,62.9,31.8,29.96,WNW,290,1.0,1.0,31,0.00,,,0.00,Wunderground v.1.15,2013-05-07 15:30:00,
2013-05-07 09:35:00,63.4,31.4,29.95,WNW,294,0.0,3.0,30,0.00,,,0.00,Wunderground v.1.15,2013-05-07 15:35:00,
2013-05-07 09:40:00,63.9,31.0,29.96,WNW,296,1.0,1.0,29,0.00,,,0.00,Wunderground v.1.15,2013-05-07 15:40:00,
2013-05-07 09:45:00,64.5,31.5,29.96,WNW,296,1.0,1.0,29,0.00,,,0.00,Wunderground v.1.15,2013-05-07 15:45:00,
2013-05-07 09:50:00,65.2,31.2,29.95,WNW,295,0.0,1.0,28,0.00,,,0.00,Wunderground v.1.15,2013-05-07 15:50:00,
2013-05-07 09:55:00,65.8,30.9,29.95,WNW,293,1.0,1.0,27,0.00,,,0.00,Wunderground v.1.15,2013-05-07 15:55:00,
2013-05-07 10:00:00,66.2,31.2,29.95,WNW,293,1.0,1.0,27,0.00,,,0.00,Wunderground v.1.15,2013-05-07 16:00:00,
2013-05-07 10:05:00,66.3,30.4,29.95,North,355,1.0,3.0,26,0.00,,,0.00,Wunderground v.1.15,2013-05-07 16:05:00,
2013-05-07 10:10:00,66.0,31.0,29.95,North,355,1.0,1.0,27,0.00,,,0.00,Wunderground v.1.15,2013-05-07 16:10:00,
2013-05-07 10:15:00,66.3,30.4,29.95,North,355,1.0,1.0,26,0.00,,,0.00,Wunderground v.1.15,2013-05-07 16:15:00,
2013-05-07 10:20:00,66.4,31.4,29.95,North,355,1.0,1.0,27,0.00,,,0.00,Wunderground v.1.15,2013-05-07 16:20:00,
2013-05-07 10:25:00,67.1,32.0,29.95,North,351,1.0,1.0,27,0.00,,,0.00,Wunderground v.1.15,2013-05-07 16:25:00,
2013-05-07 10:30:00,67.5,30.4,29.95,North,350,1.0,1.0,25,0.00,,,0.00,Wunderground v.1.15,2013-05-07 16:30:00,
2013-05-07 10:35:00,67.7,30.6,29.95,NNE,13,1.0,3.0,25,0.00,,,0.00,Wunderground v.1.15,2013-05-07 16:35:00,
2013-05-07 10:40:00,67.7,31.6,29.95,North,9,1.0,2.0,26,0.00,,,0.00,Wunderground v.1.15,2013-05-07 16:40:00,
2013-05-07 10:45:00,68.1,31.9,29.94,North,360,1.0,2.0,26,0.00,,,0.00,Wunderground v.1.15,2013-05-07 16:45:00,
2013-05-07 10:50:00,68.5,31.3,29.94,NNW,338,2.0,4.0,25,0.00,,,0.00,Wunderground v.1.15,2013-05-07 16:50:00,
2013-05-07 10:55:00,67.6,32.4,29.94,NNW,338,3.0,4.0,27,0.00,,,0.00,Wunderground v.1.15,2013-05-07 16:55:00,
2013-05-07 10:59:00,68.0,31.8,29.94,NNW,336,2.0,2.0,26,0.00,,,0.00,Wunderground v.1.15,2013-05-07 16:59:00,
2013-05-07 11:04:00,68.4,32.1,29.94,WNW,302,2.0,3.0,26,0.00,,,0.00,Wunderground v.1.15,2013-05-07 17:04:00,
2013-05-07 11:09:00,69.1,31.8,29.94,South,188,2.0,2.0,25,0.00,,,0.00,Wunderground v.1.15,2013-05-07 17:09:00,
2013-05-07 11:15:00,69.4,32.0,29.94,West,279,2.0,6.0,25,0.00,,,0.00,Wunderground v.1.15,2013-05-07 17:15:00,
2013-05-07 11:25:00,70.8,32.2,29.94,NW,315,2.0,6.0,24,0.00,,,0.00,Wunderground v.1.15,2013-05-07 17:25:00,
2013-05-07 11:30:00,70.3,32.8,29.93,NNW,328,2.0,4.0,25,0.00,,,0.00,Wunderground v.1.15,2013-05-07 17:30:00,
2013-05-07 11:35:00,70.7,32.1,29.94,West,267,3.0,4.0,24,0.00,,,0.00,Wunderground v.1.15,2013-05-07 17:35:00,
2013-05-07 11:40:00,70.7,31.1,29.93,West,263,2.0,2.0,23,0.00,,,0.00,Wunderground v.1.15,2013-05-07 17:40:00,
2013-05-07 11:45:00,71.2,31.5,29.93,South,184,2.0,2.0,23,0.00,,,0.00,Wunderground v.1.15,2013-05-07 17:45:00,
2013-05-07 11:50:00,71.8,32.0,29.93,South,177,3.0,6.0,23,0.00,,,0.00,Wunderground v.1.15,2013-05-07 17:50:00,
2013-05-07 12:00:00,70.6,32.0,29.92,SW,217,4.0,4.0,24,0.00,,,0.00,Wunderground v.1.15,2013-05-07 18:00:00,
2013-05-07 12:10:00,70.6,31.0,29.92,SSW,199,4.0,4.0,23,0.00,,,0.00,Wunderground v.1.15,2013-05-07 18:10:00,
2013-05-07 12:14:00,71.5,31.7,29.92,SSW,209,3.0,4.0,23,0.00,,,0.00,Wunderground v.1.15,2013-05-07 18:14:00,
2013-05-07 12:20:00,72.2,31.2,29.91,East,101,2.0,5.0,22,0.00,,,0.00,Wunderground v.1.15,2013-05-07 18:20:00,
2013-05-07 12:25:00,72.5,31.5,29.91,South,187,2.0,5.0,22,0.00,,,0.00,Wunderground v.1.15,2013-05-07 18:25:00,
2013-05-07 12:30:00,72.7,31.6,29.91,SSW,201,3.0,3.0,22,0.00,,,0.00,Wunderground v.1.15,2013-05-07 18:30:00,
2013-05-07 12:35:00,72.4,31.4,29.91,SE,139,4.0,4.0,22,0.00,,,0.00,Wunderground v.1.15,2013-05-07 18:35:00,
2013-05-07 12:45:00,73.9,31.5,29.90,SSW,203,2.0,3.0,21,0.00,,,0.00,Wunderground v.1.15,2013-05-07 18:45:00,
2013-05-07 12:50:00,73.7,30.1,29.89,NNW,346,2.0,2.0,20,0.00,,,0.00,Wunderground v.1.15,2013-05-07 18:50:00,
2013-05-07 12:55:00,73.2,29.7,29.89,NNE,15,2.0,2.0,20,0.00,,,0.00,Wunderground v.1.15,2013-05-07 18:55:00,
2013-05-07 13:04:00,73.5,31.1,29.89,NW,308,1.0,7.0,21,0.00,,,0.00,Wunderground v.1.15,2013-05-07 19:04:00,
2013-05-07 13:10:00,73.8,30.2,29.88,SW,234,3.0,3.0,20,0.00,,,0.00,Wunderground v.1.15,2013-05-07 19:10:00,
2013-05-07 13:15:00,74.0,30.4,29.88,NW,324,4.0,4.0,20,0.00,,,0.00,Wunderground v.1.15,2013-05-07 19:15:00,
2013-05-07 13:20:00,74.4,30.7,29.88,South,182,3.0,3.0,20,0.00,,,0.00,Wunderground v.1.15,2013-05-07 19:20:00,
2013-05-07 13:25:00,74.4,30.7,29.88,SE,140,2.0,3.0,20,0.00,,,0.00,Wunderground v.1.15,2013-05-07 19:25:00,
2013-05-07 13:30:00,73.6,30.0,29.87,ENE,65,2.0,2.0,20,0.00,,,0.00,Wunderground v.1.15,2013-05-07 19:30:00,
2013-05-07 13:35:00,73.4,31.1,29.87,SW,223,2.0,7.0,21,0.00,,,0.00,Wunderground v.1.15,2013-05-07 19:35:00,
2013-05-07 13:40:00,74.3,30.6,29.87,West,270,2.0,2.0,20,0.00,,,0.00,Wunderground v.1.15,2013-05-07 19:40:00,
2013-05-07 13:50:00,75.2,30.1,29.87,SSW,198,4.0,5.0,19,0.00,,,0.00,Wunderground v.1.15,2013-05-07 19:50:00,
2013-05-07 14:00:00,74.4,30.7,29.86,SSE,153,3.0,3.0,20,0.00,,,0.00,Wunderground v.1.15,2013-05-07 20:00:00,
2013-05-07 14:05:00,74.8,29.8,29.86,SE,135,2.0,3.0,19,0.00,,,0.00,Wunderground v.1.15,2013-05-07 20:05:00,
2013-05-07 14:09:00,74.4,29.4,29.85,ESE,102,2.0,2.0,19,0.00,,,0.00,Wunderground v.1.15,2013-05-07 20:09:00,
2013-05-07 14:14:00,74.1,29.2,29.85,ENE,66,2.0,2.0,19,0.00,,,0.00,Wunderground v.1.15,2013-05-07 20:14:00,
2013-05-07 14:20:00,73.6,28.8,29.85,NE,38,2.0,2.0,19,0.00,,,0.00,Wunderground v.1.15,2013-05-07 20:20:00,
2013-05-07 14:30:00,74.5,29.5,29.84,SSW,194,2.0,2.0,19,0.00,,,0.00,Wunderground v.1.15,2013-05-07 20:30:00,
2013-05-07 14:35:00,75.4,30.2,29.84,SSW,196,2.0,3.0,19,0.00,,,0.00,Wunderground v.1.15,2013-05-07 20:35:00,
2013-05-07 14:40:00,76.0,28.0,29.84,South,176,1.0,3.0,17,0.00,,,0.00,Wunderground v.1.15,2013-05-07 20:40:00,
2013-05-07 14:45:00,74.9,27.1,29.83,South,176,1.0,3.0,17,0.00,,,0.00,Wunderground v.1.15,2013-05-07 20:45:00,
2013-05-07 14:50:00,74.8,27.0,29.83,South,190,2.0,3.0,17,0.00,,,0.00,Wunderground v.1.15,2013-05-07 20:50:00,
2013-05-07 14:54:00,75.2,25.9,29.83,SSW,204,4.0,8.0,16,0.00,,,0.00,Wunderground v.1.15,2013-05-07 20:54:00,
2013-05-07 14:59:00,75.4,27.5,29.82,SSW,196,4.0,4.0,17,0.00,,,0.00,Wunderground v.1.15,2013-05-07 20:59:00,
2013-05-07 15:04:00,76.0,26.5,29.82,SSW,211,3.0,6.0,16,0.00,,,0.00,Wunderground v.1.15,2013-05-07 21:04:00,
2013-05-07 15:09:00,76.1,26.6,29.82,SW,219,3.0,4.0,16,0.00,,,0.00,Wunderground v.1.15,2013-05-07 21:09:00,
2013-05-07 15:14:00,76.2,25.1,29.82,SW,223,4.0,6.0,15,0.00,,,0.00,Wunderground v.1.15,2013-05-07 21:14:00,
2013-05-07 15:20:00,75.7,26.3,29.81,SSW,200,4.0,5.0,16,0.00,,,0.00,Wunderground v.1.15,2013-05-07 21:20:00,
2013-05-07 15:25:00,76.5,26.9,29.81,West,265,4.0,5.0,16,0.00,,,0.00,Wunderground v.1.15,2013-05-07 21:25:00,
2013-05-07 15:30:00,76.9,25.7,29.81,South,187,5.0,5.0,15,0.00,,,0.00,Wunderground v.1.15,2013-05-07 21:30:00,
2013-05-07 15:35:00,77.2,25.9,29.81,SSW,192,4.0,5.0,15,0.00,,,0.00,Wunderground v.1.15,2013-05-07 21:35:00,
2013-05-07 15:45:00,77.5,26.2,29.80,SSE,155,3.0,4.0,15,0.00,,,0.00,Wunderground v.1.15,2013-05-07 21:45:00,
2013-05-07 15:54:00,78.6,23.6,29.79,SSW,212,2.0,4.0,13,0.00,,,0.00,Wunderground v.1.15,2013-05-07 21:54:00,
2013-05-07 16:00:00,79.0,23.9,29.79,SSW,213,3.0,7.0,13,0.00,,,0.00,Wunderground v.1.15,2013-05-07 22:00:00,
2013-05-07 16:05:00,78.7,23.7,29.78,SSW,197,4.0,10.0,13,0.00,,,0.00,Wunderground v.1.15,2013-05-07 22:05:00,
2013-05-07 16:10:00,77.9,23.1,29.78,South,190,5.0,5.0,13,0.00,,,0.00,Wunderground v.1.15,2013-05-07 22:10:00,
2013-05-07 16:15:00,78.3,23.4,29.77,SW,219,5.0,11.0,13,0.00,,,0.00,Wunderground v.1.15,2013-05-07 22:15:00,
2013-05-07 16:20:00,78.2,23.3,29.77,SSW,196,4.0,7.0,13,0.00,,,0.00,Wunderground v.1.15,2013-05-07 22:20:00,
2013-05-07 16:25:00,78.0,23.1,29.77,South,181,5.0,7.0,13,0.00,,,0.00,Wunderground v.1.15,2013-05-07 22:25:00,
2013-05-07 16:35:00,77.9,24.8,29.76,SW,219,3.0,15.0,14,0.00,,,0.00,Wunderground v.1.15,2013-05-07 22:35:00,
2013-05-07 16:40:00,77.8,23.0,29.76,South,186,4.0,4.0,13,0.00,,,0.00,Wunderground v.1.15,2013-05-07 22:40:00,
2013-05-07 16:44:00,77.6,24.6,29.76,SSW,213,4.0,4.0,14,0.00,,,0.00,Wunderground v.1.15,2013-05-07 22:44:00,
2013-05-07 16:49:00,78.1,25.0,29.76,South,188,3.0,3.0,14,0.00,,,0.00,Wunderground v.1.15,2013-05-07 22:49:00,
2013-05-07 16:54:00,78.4,25.2,29.75,South,185,4.0,11.0,14,0.00,,,0.00,Wunderground v.1.15,2013-05-07 22:54:00,
2013-05-07 17:00:00,78.2,25.1,29.75,ESE,123,4.0,4.0,14,0.00,,,0.00,Wunderground v.1.15,2013-05-07 23:00:00,
2013-05-07 17:05:00,78.4,25.2,29.75,SSE,155,4.0,4.0,14,0.00,,,0.00,Wunderground v.1.15,2013-05-07 23:05:00,
2013-05-07 17:10:00,78.9,25.6,29.74,SW,214,2.0,2.0,14,0.00,,,0.00,Wunderground v.1.15,2013-05-07 23:10:00,
2013-05-07 17:15:00,78.7,27.1,29.75,South,181,5.0,14.0,15,0.00,,,0.00,Wunderground v.1.15,2013-05-07 23:15:00,
2013-05-07 17:20:00,77.6,26.3,29.74,SW,225,7.0,7.0,15,0.00,,,0.00,Wunderground v.1.15,2013-05-07 23:20:00,
2013-05-07 17:25:00,77.4,26.1,29.74,SSW,194,7.0,10.0,15,0.00,,,0.00,Wunderground v.1.15,2013-05-07 23:25:00,
2013-05-07 17:35:00,77.0,24.1,29.74,West,281,7.0,10.0,14,0.00,,,0.00,Wunderground v.1.15,2013-05-07 23:35:00,
2013-05-07 17:40:00,75.3,22.8,29.74,SSW,211,7.0,7.0,14,0.00,,,0.00,Wunderground v.1.15,2013-05-07 23:40:00,
2013-05-07 17:45:00,74.3,23.6,29.74,WSW,240,6.0,7.0,15,0.00,,,0.00,Wunderground v.1.15,2013-05-07 23:45:00,
2013-05-07 17:50:00,73.8,23.2,29.74,SW,219,4.0,4.0,15,0.00,,,0.00,Wunderground v.1.15,2013-05-07 23:50:00,
2013-05-07 17:54:00,73.7,23.1,29.74,South,185,2.0,4.0,15,0.00,,,0.00,Wunderground v.1.15,2013-05-07 23:54:00,
2013-05-07 18:05:00,73.4,22.9,29.74,South,190,4.0,4.0,15,0.00,,,0.00,Wunderground v.1.15,2013-05-08 00:05:00,
2013-05-07 18:10:00,73.2,24.3,29.74,SSW,199,4.0,5.0,16,0.00,,,0.00,Wunderground v.1.15,2013-05-08 00:10:00,
2013-05-07 18:15:00,73.2,24.3,29.75,SW,216,4.0,5.0,16,0.00,,,0.00,Wunderground v.1.15,2013-05-08 00:15:00,
2013-05-07 18:20:00,72.9,25.5,29.76,SW,231,6.0,10.0,17,0.00,,,0.00,Wunderground v.1.15,2013-05-08 00:20:00,
2013-05-07 18:25:00,72.4,25.1,29.76,SSW,207,6.0,10.0,17,0.00,,,0.00,Wunderground v.1.15,2013-05-08 00:25:00,
2013-05-07 18:30:00,72.1,26.2,29.76,SW,216,6.0,14.0,18,0.00,,,0.00,Wunderground v.1.15,2013-05-08 00:30:00,
2013-05-07 18:34:00,71.7,27.2,29.76,SW,230,7.0,14.0,19,0.00,,,0.00,Wunderground v.1.15,2013-05-08 00:34:00,
2013-05-07 18:39:00,71.3,26.9,29.76,SSW,210,7.0,7.0,19,0.00,,,0.00,Wunderground v.1.15,2013-05-08 00:39:00,
2013-05-07 18:44:00,71.2,26.8,29.77,SW,216,6.0,7.0,19,0.00,,,0.00,Wunderground v.1.15,2013-05-08 00:44:00,
2013-05-07 18:50:00,71.1,26.7,29.77,SSW,211,4.0,4.0,19,0.00,,,0.00,Wunderground v.1.15,2013-05-08 00:50:00,
2013-05-07 18:55:00,71.0,26.6,29.76,SW,215,4.0,4.0,19,0.00,,,0.00,Wunderground v.1.15,2013-05-08 00:55:00,
2013-05-07 19:00:00,71.0,27.9,29.76,SSW,200,3.0,3.0,20,0.00,,,0.00,Wunderground v.1.15,2013-05-08 01:00:00,
2013-05-07 19:10:00,71.0,27.9,29.76,SSW,194,3.0,3.0,20,0.00,,,0.00,Wunderground v.1.15,2013-05-08 01:10:00,
2013-05-07 19:15:00,70.2,29.5,29.77,SW,214,6.0,10.0,22,0.00,,,0.00,Wunderground v.1.15,2013-05-08 01:15:00,
2013-05-07 19:20:00,69.6,29.0,29.76,SSW,207,9.0,9.0,22,0.00,,,0.00,Wunderground v.1.15,2013-05-08 01:20:00,
2013-05-07 19:29:00,69.3,28.8,29.77,South,177,7.0,7.0,22,0.00,,,0.00,Wunderground v.1.15,2013-05-08 01:29:00,
2013-05-07 19:35:00,68.7,30.4,29.78,SSE,151,7.0,7.0,24,0.00,,,0.00,Wunderground v.1.15,2013-05-08 01:35:00,
2013-05-07 19:40:00,68.1,30.9,29.79,SSW,201,6.0,6.0,25,0.00,,,0.00,Wunderground v.1.15,2013-05-08 01:40:00,
2013-05-07 19:45:00,67.5,30.4,29.78,SE,142,4.0,6.0,25,0.00,,,0.00,Wunderground v.1.15,2013-05-08 01:45:00,
2013-05-07 19:50:00,67.3,30.2,29.77,SE,141,4.0,4.0,25,0.00,,,0.00,Wunderground v.1.15,2013-05-08 01:50:00,
2013-05-07 19:55:00,67.2,30.2,29.77,SSE,156,3.0,4.0,25,0.00,,,0.00,Wunderground v.1.15,2013-05-08 01:55:00,
2013-05-07 20:00:00,67.1,30.1,29.78,SSE,165,3.0,3.0,25,0.00,,,0.00,Wunderground v.1.15,2013-05-08 02:00:00,
2013-05-07 20:05:00,67.0,30.0,29.78,SE,128,3.0,3.0,25,0.00,,,0.00,Wunderground v.1.15,2013-05-08 02:05:00,
2013-05-07 20:10:00,67.1,30.1,29.78,SE,126,2.0,2.0,25,0.00,,,0.00,Wunderground v.1.15,2013-05-08 02:10:00,
2013-05-07 20:15:00,67.1,29.1,29.78,South,180,2.0,2.0,24,0.00,,,0.00,Wunderground v.1.15,2013-05-08 02:15:00,
2013-05-07 20:20:00,67.2,29.2,29.77,SSE,148,1.0,5.0,24,0.00,,,0.00,Wunderground v.1.15,2013-05-08 02:20:00,
2013-05-07 20:25:00,67.4,29.3,29.77,ESE,106,2.0,5.0,24,0.00,,,0.00,Wunderground v.1.15,2013-05-08 02:25:00,
2013-05-07 20:29:00,67.5,28.4,29.76,SE,144,2.0,2.0,23,0.00,,,0.00,Wunderground v.1.15,2013-05-08 02:29:00,
2013-05-07 20:35:00,67.6,28.5,29.76,SSW,195,2.0,2.0,23,0.00,,,0.00,Wunderground v.1.15,2013-05-08 02:35:00,
2013-05-07 20:39:00,67.6,28.5,29.76,SE,146,1.0,5.0,23,0.00,,,0.00,Wunderground v.1.15,2013-05-08 02:39:00,
2013-05-07 20:45:00,67.5,28.4,29.76,ESE,111,1.0,5.0,23,0.00,,,0.00,Wunderground v.1.15,2013-05-08 02:45:00,
2013-05-07 20:50:00,67.4,28.3,29.76,East,90,2.0,2.0,23,0.00,,,0.00,Wunderground v.1.15,2013-05-08 02:50:00,
2013-05-07 21:00:00,66.9,27.9,29.76,ESE,107,1.0,1.0,23,0.00,,,0.00,Wunderground v.1.15,2013-05-08 03:00:00,
2013-05-07 21:05:00,66.7,28.7,29.76,ESE,113,2.0,3.0,24,0.00,,,0.00,Wunderground v.1.15,2013-05-08 03:05:00,
2013-05-07 21:10:00,66.5,28.6,29.76,ESE,109,1.0,2.0,24,0.00,,,0.00,Wunderground v.1.15,2013-05-08 03:10:00,
2013-05-07 21:15:00,66.3,28.4,29.76,ESE,116,1.0,2.0,24,0.00,,,0.00,Wunderground v.1.15,2013-05-08 03:15:00,
2013-05-07 21:20:00,66.2,28.3,29.76,SE,131,1.0,2.0,24,0.00,,,0.00,Wunderground v.1.15,2013-05-08 03:20:00,
2013-05-07 21:25:00,66.1,28.2,29.76,ESE,117,1.0,2.0,24,0.00,,,0.00,Wunderground v.1.15,2013-05-08 03:25:00,
2013-05-07 21:30:00,66.0,28.1,29.77,ESE,114,1.0,7.0,24,0.00,,,0.00,Wunderground v.1.15,2013-05-08 03:30:00,
2013-05-07 21:35:00,65.9,28.1,29.76,ESE,121,1.0,7.0,24,0.00,,,0.00,Wunderground v.1.15,2013-05-08 03:35:00,
2013-05-07 21:40:00,65.9,28.1,29.76,ESE,104,2.0,2.0,24,0.00,,,0.00,Wunderground v.1.15,2013-05-08 03:40:00,
2013-05-07 21:45:00,65.8,26.9,29.77,ESE,111,1.0,2.0,23,0.00,,,0.00,Wunderground v.1.15,2013-05-08 03:45:00,
2013-05-07 21:50:00,65.8,25.9,29.77,SSE,148,1.0,1.0,22,0.00,,,0.00,Wunderground v.1.15,2013-05-08 03:50:00,
2013-05-07 21:55:00,65.7,25.8,29.77,SE,134,1.0,2.0,22,0.00,,,0.00,Wunderground v.1.15,2013-05-08 03:55:00,
2013-05-07 22:00:00,65.7,24.7,29.77,SE,126,1.0,1.0,21,0.00,,,0.00,Wunderground v.1.15,2013-05-08 04:00:00,
2013-05-07 22:05:00,65.7,24.7,29.77,SE,128,1.0,1.0,21,0.00,,,0.00,Wunderground v.1.15,2013-05-08 04:05:00,
2013-05-07 22:10:00,65.6,23.4,29.77,South,187,1.0,1.0,20,0.00,,,0.00,Wunderground v.1.15,2013-05-08 04:10:00,
2013-05-07 22:14:00,65.6,23.4,29.77,SSW,206,1.0,1.0,20,0.00,,,0.00,Wunderground v.1.15,2013-05-08 04:14:00,
2013-05-07 22:19:00,65.5,22.1,29.77,SE,132,1.0,1.0,19,0.00,,,0.00,Wunderground v.1.15,2013-05-08 04:19:00,
2013-05-07 22:25:00,65.4,23.2,29.77,SE,142,0.0,1.0,20,0.00,,,0.00,Wunderground v.1.15,2013-05-08 04:25:00,
2013-05-07 22:30:00,65.3,23.2,29.77,SSW,196,1.0,4.0,20,0.00,,,0.00,Wunderground v.1.15,2013-05-08 04:30:00,
2013-05-07 22:35:00,65.1,23.0,29.77,SSW,196,1.0,4.0,20,0.00,,,0.00,Wunderground v.1.15,2013-05-08 04:35:00,
2013-05-07 22:40:00,64.9,22.8,29.78,SSW,196,1.0,1.0,20,0.00,,,0.00,Wunderground v.1.15,2013-05-08 04:40:00,
2013-05-07 22:45:00,64.9,22.8,29.78,SSW,202,2.0,2.0,20,0.00,,,0.00,Wunderground v.1.15,2013-05-08 04:45:00,
2013-05-07 22:50:00,64.6,24.9,29.79,WNW,290,3.0,3.0,22,0.00,,,0.00,Wunderground v.1.15,2013-05-08 04:50:00,
2013-05-07 22:55:00,63.9,27.4,29.79,North,355,3.0,3.0,25,0.00,,,0.00,Wunderground v.1.15,2013-05-08 04:55:00,
2013-05-07 23:00:00,63.2,28.6,29.78,North,355,2.0,2.0,27,0.00,,,0.00,Wunderground v.1.15,2013-05-08 05:00:00,
2013-05-07 23:04:00,62.6,28.1,29.78,North,355,1.0,2.0,27,0.00,,,0.00,Wunderground v.1.15,2013-05-08 05:04:00,
2013-05-07 23:09:00,62.0,28.5,29.78,North,355,0.0,0.0,28,0.00,,,0.00,Wunderground v.1.15,2013-05-08 05:09:00,
2013-05-07 23:15:00,61.4,28.0,29.79,North,355,0.0,0.0,28,0.00,,,0.00,Wunderground v.1.15,2013-05-08 05:15:00,
2013-05-07 23:20:00,60.7,28.2,29.79,North,355,0.0,0.0,29,0.00,,,0.00,Wunderground v.1.15,2013-05-08 05:20:00,
2013-05-07 23:25:00,60.1,27.7,29.79,North,355,0.0,0.0,29,0.00,,,0.00,Wunderground v.1.15,2013-05-08 05:25:00,
2013-05-07 23:30:00,59.6,28.1,29.79,North,355,0.0,6.0,30,0.00,,,0.00,Wunderground v.1.15,2013-05-08 05:30:00,
2013-05-07 23:35:00,59.4,27.9,29.80,North,355,0.0,6.0,30,0.00,,,0.00,Wunderground v.1.15,2013-05-08 05:35:00,
2013-05-07 23:40:00,59.3,27.8,29.80,North,355,0.0,0.0,30,0.00,,,0.00,Wunderground v.1.15,2013-05-08 05:40:00,
2013-05-07 23:45:00,59.0,28.4,29.80,North,355,0.0,0.0,31,0.00,,,0.00,Wunderground v.1.15,2013-05-08 05:45:00,
2013-05-07 23:49:00,59.0,28.4,29.80,North,355,0.0,0.0,31,0.00,,,0.00,Wunderground v.1.15,2013-05-08 05:49:00,
2013-05-07 23:54:00,59.0,28.4,29.80,North,355,0.0,0.0,31,0.00,,,0.00,Wunderground v.1.15,2013-05-08 05:54:00,